Location: Inzago
(45.5333°N, 9.4833°E)
Time: 16:27:12
(UTC+00:00)

Daily predictions for brighter satellites

Satellite Brightness Start Highest point End
(mag) Time Altitude Azimuth Time Altitude Azimuth Time Altitude Azimuth
SL-16 R/B 2.4 16:41:47 10° NNW 16:47:21 52° ENE 16:52:51 10° SE
Cosmos 1812 Rocket 4.2 16:44:18 10° NNW 16:48:44 64° W 16:53:09 10° S
USA 102 4.5 16:47:30 10° SSE 16:50:51 72° WSW 16:56:19 10° NNW
Cosmos 1939 Rocket 4.5 16:48:41 10° E 16:50:56 15° ENE 16:53:12 10° NNE
SL-8 Rocket 4.2 16:48:19 10° SSE 16:54:22 52° E 17:00:25 10° NNE
Cosmos 44 3.1 16:50:10 10° SSW 16:54:44 78° SE 16:59:10 10° NE
Cosmos 2082 3.9 16:49:39 10° S 16:55:05 54° ESE 17:00:36 10° NE
Cosmos 2219 3.7 16:50:37 10° SW 16:56:11 62° WNW 17:01:47 10° NNE
YAOGAN 1 3.6 16:55:11 10° ESE 16:58:41 25° ENE 17:02:13 10° NNE
Cosmos 2297 Rocket 2.4 16:54:23 10° SSW 17:00:02 80° WNW 17:05:45 10° NNE
USA 234 3.3 16:53:47 10° ESE 17:00:18 75° NE 17:06:51 10° NW
Cosmos 2263 Rocket 3.8 17:04:18 10° SE 17:06:59 14° E 17:09:20 11° ENE
Atlas Centaur 2 4.1 17:07:38 10° S 17:08:39 11° S 17:09:41 10° SSE
YAOGAN 6 2.6 17:05:30 10° SSE 17:09:06 58° ENE 17:12:42 10° N
H-2A R/B 4.1 17:06:12 10° S 17:09:54 46° W 17:13:42 10° NNW
ADEOS Rocket 4.4 17:05:29 10° NE 17:10:52 23° E 17:16:32 10° SE
Cosmos 2227 Rocket 2.5 17:07:50 10° SW 17:13:28 70° WNW 17:19:08 10° NNE
ERBS 4.2 17:11:03 10° WNW 17:13:40 21° NNW 17:16:17 10° NNE
NOAA 12 4.3 17:10:38 10° S 17:15:51 79° WSW 17:21:09 10° NNW
Cosmos 2341 Rocket 4.2 17:11:20 10° SSW 17:17:42 80° W 17:24:04 10° N
SMAP 4.3 17:14:04 10° S 17:18:32 46° W 17:23:01 10° NNW
Starlink L 4.5 17:18:55 10° NW 17:21:37 23° N 17:23:18 16° NE
Starlink A 4.5 17:21:10 10° NW 17:23:53 24° N 17:25:28 17° NE
Starlink R 4.4 17:23:24 10° NW 17:26:09 24° N 17:27:37 18° NE
Starlink K 4.4 17:25:38 10° NW 17:28:23 24° N 17:29:46 18° NE
Cosmos 1953 Rocket 3.7 17:24:18 10° S 17:28:48 83° W 17:33:18 10° N
Cosmos 1943 4.0 17:24:54 10° N 17:29:46 29° NE 17:33:47 14° ESE
Cosmos 1328 3.7 17:26:19 10° S 17:30:20 85° E 17:34:22 10° N
Cosmos 864 Rocket 4.4 17:24:19 10° S 17:30:25 73° E 17:36:34 10° NNE
Starlink M 4.4 17:27:50 10° NW 17:30:36 25° N 17:31:54 19° NE
Cosmos 1339 Rocket 4.5 17:25:06 10° N 17:31:14 90° E 17:37:25 10° S
CZ-4 R/B 1.4 17:28:15 10° SSE 17:32:18 66° ENE 17:36:27 10° N
COSMO-SKYMED 1 2.5 17:28:07 10° NNE 17:32:29 75° ESE 17:36:49 10° S
Cosmos 1842 Rocket 3.9 17:29:05 10° N 17:33:24 43° ENE 17:37:40 10° SSE
FengYun 1-2 T 4.4 17:29:53 10° SSE 17:35:32 84° WSW 17:41:15 10° NNW
Starlink AR 4.0 17:34:35 10° NW 17:36:45 21° NNE 17:37:04 21° NNE
ATLAS CENTAUR R/B 1.2 17:35:18 10° NW 17:39:19 82° SW 17:43:02 10° SSE
Cosmos 2218 Rocket 4.1 17:33:27 10° S 17:39:50 87° WNW 17:46:17 10° N
Cosmos 44 Rocket 3.7 17:36:44 10° S 17:41:15 42° ESE 17:43:54 22° ENE
CSL-04 Debris 4.1 17:36:04 10° SSE 17:41:23 64° ENE 17:46:45 10° N
Meteor 2-12 Rocket 4.5 17:37:39 10° SSE 17:43:31 55° E 17:49:24 10° NNE
Cosmos 1140 Rocket 4.5 17:40:29 10° N 17:44:50 25° NE 17:46:04 23° ENE
SL-08 R/B 4.5 17:38:39 10° S 17:44:56 70° E 17:51:20 10° NNE
SL-8 R/B 3.8 17:43:28 10° W 17:48:16 66° N 17:50:52 26° ENE
Shenzhou-11 Module 2.5 17:45:56 10° W 17:48:31 42° S 17:49:17 32° SE
Cosmos 2251 Rocket 4.0 17:45:43 10° NNW 17:50:59 64° WSW 17:56:15 10° S
USA 116 3.0 17:53:20 27° NNE 17:54:51 66° ESE 17:57:57 10° S
H-2A R/B 3.2 17:55:39 23° NE 17:55:39 23° NE 17:58:55 10° N
Cosmos 1703 4.2 17:51:16 10° SSW 17:55:08 50° WNW 17:59:02 10° N
Cosmos 1934 Rocket 4.5 17:54:56 10° SSE 18:00:14 32° E 18:05:30 10° NNE
CSL-04 Rocket 3.7 17:55:01 10° SSE 18:00:32 89° ENE 18:06:09 10° NNW
Cosmos 1000 Rocket 4.5 17:55:06 10° N 18:01:13 57° ENE 18:07:21 10° SSE
ATLAS 5 CENTAUR R/B 4.3 18:00:08 10° N 18:01:16 11° N 18:02:26 10° NNE
Cosmos 1356 Rocket 3.7 17:57:52 10° NNW 18:01:54 65° W 18:05:59 10° S
Cosmos 1455 4.4 18:00:09 10° NNW 18:03:24 27° W 18:06:36 10° SSW
Cosmos 2221 2.4 18:00:16 10° N 18:04:33 69° E 18:08:50 10° SSE
IRS-1A Rocket 4.5 18:00:47 10° SE 18:06:14 47° ENE 18:11:35 10° N
USA 267 3.9 18:03:51 18° NE 18:08:30 49° NNW 18:14:43 10° W
Cosmos 1076 Rocket 3.8 18:06:49 10° SSE 18:10:41 44° ESE 18:10:41 44° ESE
Starlink T 4.2 18:09:35 10° NW 18:11:56 31° N 18:11:56 31° N
Starlink N 4.2 18:11:35 10° NW 18:13:53 31° N 18:13:53 31° N
Starlink Q 4.3 18:13:50 10° NW 18:16:02 30° NNW 18:16:02 30° NNW
Starlink P 4.3 18:15:55 10° NW 18:18:04 30° NNW 18:18:04 30° NNW
ISS -2.3 18:16:27 10° WNW 18:19:20 29° N 18:19:20 29° N
CZ-2D R/B 3.8 18:17:11 10° S 18:20:58 59° W 18:24:48 10° NNW
Starlink U 4.4 18:18:01 10° NW 18:20:05 29° NNW 18:20:05 29° NNW
Cosmos 1371 Rocket 4.0 18:16:15 10° S 18:21:15 52° ESE 18:22:05 47° ENE
CENTAUR R/B 4.0 18:17:10 10° SSE 18:19:01 17° SE 18:19:01 17° SE
Cosmos 407 Rocket 3.4 18:17:05 10° NNW 18:22:22 66° ENE 18:24:47 32° SE
Starlink B 4.5 18:20:08 10° NW 18:22:08 29° NNW 18:22:08 29° NNW
Cosmos 1190 Rocket 4.0 18:17:55 10° NNW 18:23:11 59° ENE 18:24:43 42° ESE
Cosmos 1869 4.1 18:19:32 10° N 18:22:05 37° N 18:22:05 37° N
Cosmos 1939 Rocket 3.6 18:21:35 10° S 18:25:25 53° W 18:29:22 10° NNW
In-Cosmos 22 Rocket 4.3 18:20:18 10° SSE 18:25:43 49° E 18:26:19 47° ENE
Fregat R/B Cluster 11 4.5 18:23:57 10° SSW 18:27:07 76° ESE 18:37:17 10° NE
NOSS 3-2 (A) 3.5 18:22:06 10° S 18:27:32 48° ESE 18:28:17 45° E
SL-16 R/B 4.4 18:26:30 10° NW 18:31:06 26° WSW 18:35:40 10° SSW
YAOGAN 1 4.2 18:30:41 10° SSW 18:34:38 34° W 18:38:37 10° NNW
Cosmos 2227 4.1 18:30:38 10° SSW 18:36:23 88° WNW 18:39:03 34° NNE
SJ-11-01 4.1 18:39:25 73° SE 18:39:49 80° ENE 18:44:33 10° N
Cosmos 2058 4.3 18:37:23 10° S 18:39:19 27° S 18:39:19 27° S
Ariane Rocket 3.0 18:38:22 10° SSE 18:43:27 83° WSW 18:48:34 10° NNW
Cosmos 1603 3.9 18:39:00 10° NNW 18:44:38 68° WSW 18:48:56 17° SSE
ARGOS 3.9 18:46:23 38° NNE 18:46:23 38° NNE 18:49:55 10° N
Cosmos 1624 Rocket 3.8 18:43:00 10° SSW 18:48:10 78° SE 18:48:10 78° SE
Cosmos 2263 Rocket 2.0 18:44:29 10° SSW 18:50:03 89° WNW 18:51:06 61° NNE
CZ-2C R/B 4.0 18:57:36 38° N 18:57:36 38° N 19:01:13 10° N
Atlas Centaur 2 4.2 18:54:37 10° SSW 18:56:29 12° S 18:56:42 12° S
ADEOS Rocket 3.5 18:50:01 10° N 18:56:49 75° WNW 19:04:16 10° SSW
Cosmos 2056 Rocket 3.6 18:58:59 10° SSW 19:03:47 72° SW 19:03:47 72° SW
USA 238 DEB 3.5 19:01:20 10° SW 19:08:01 87° NW 19:08:59 68° NNE
USA 238 3.5 19:01:27 10° SW 19:08:08 88° NW 19:09:02 70° NNE
Cosmos 1943 3.9 19:08:38 10° NW 19:14:06 52° WSW 19:15:42 40° SSW
Cosmos 1140 Rocket 4.4 19:21:51 10° NNW 19:26:09 46° WNW 19:26:09 46° WNW
H-2A R/B 3.6 19:36:15 29° NW 19:36:15 29° NW 19:38:59 10° NNW
USA 267 4.4 19:51:11 32° NNW 19:51:11 32° NNW 19:56:19 10° WNW
